METAR AND TAF INFORMATION
METAR FOR SBUL
ADDS - METARS form results

(0508 UTC 16 June 2019)
Data provider http://aviationweather.gov/metar/data/
 
Forecast for: SBUL (UBERLANDIA , BR)
Text: TAF SBUL 152024Z 1600/1612 10005KT CAVOK TX20/1600Z TN16/1609Z RMK PGF
Forecast period: 0000 to 1200 UTC 16 June 2019
Forecast type: FROM: standard forecast or significant change
Winds: from the E (100 degrees) at 6 MPH (5 knots; 2.6 m/s)
Visibility: 6 or more miles 10+ km)
Ceiling: unknown
Clouds: missing
Weather: no significant weather forecast for this period

 AIRPORT MAP

 RUNWAY INFORMATION
Runway 4 Runway length 6398 ft Runway width 148 ft
Runway elevation 0 ft Runway displaced threshold 0 ft Runway heading 0
Runway 22 Runway length 6398 ft Runway width 148 ft
Runway elevation 0 ft Runway displaced threshold 0 ft Runway heading 0

 AIRPORT FREQUENCIES
Type APP Name APP Frequency 120.8 MHZ
Type RDO Name RDO Frequency 118.8 MHZ
Type TWR Name TWR Frequency 118.8 MHZ

 AIRPORT NEAR NAVIGATION AIDS
Type VOR-DME Name Uberlandia Frequency 116100 KHZ
Type NDB Name Uberlandia Frequency 350 KHZ



Powered by Virtual Airlines Manager [v2.6.2]